Weather in Shishovka

Russia / Voronezh Oblast     51°14′39″N   40°11′38″E
temp.,
°C
wind,
m/s
gust,
m/s
humid.,
%
clouds,
%
prec.,
mm/h
press.,
hPa
HPBL,
m
23 may, mon
mon2300:00+7nne61195100 1.8 999514
03:00+8nne4109266 2.1 1000492
06:00+5n59925 0.0 1003329
09:00+8n67681 0.0 1005861
12:00+11nnw565272 0.0 10061747
15:00+11nnw5652100 0.0 10061730
18:00+10nnw365956 0.0 10071386
21:00+6wnw33765 0.0 100847
24 may, tue
tue2400:00+5w37815 0.0 1009118
03:00+4w49854 0.0 1009156
06:00+5w411800 0.0 1009305
09:00+12w58575 0.0 1009812
12:00+15wnw7847100 0.0 10082354
15:00+14wnw6859100 0.0 10091649
18:00+14nw585848 0.1 10091002
21:00+10wnw247181 0.1 1011104
25 may, wed
wed2500:00+9wnw388695 0.2 1012216
03:00+4n35905 0.3 101498
06:00+5nnw36855 0.0 1015236
09:00+10nnw356112 0.0 1016981
12:00+13nw5855100 0.0 10161790
15:00+12nnw456194 0.0 10161026
18:00+12n456633 0.0 1017933
21:00+9nne2277100 0.0 101819
26 may, thu
thu2600:00+7ssw118599 0.0 101810
03:00+8ssw368098 0.0 1017173
06:00+9s248574 0.1 1016175
09:00+15wsw477399 0.3 1014623
12:00+20wsw794985 0.0 10132178
15:00+20sw9125553 0.1 10112157
18:00+17wsw101564100 0.2 10091412
21:00+11sw81595100 4.3 1008916
27 may, fri
fri2700:00+12wsw71392100 0.6 1007758
03:00+11wsw71495100 0.6 1006545
06:00+11wsw81494100 0.3 1006572
09:00+11w81386100 0.4 10071081
12:00+14w81377100 0.1 10081462
15:00+14w81277100 0.2 10091225
18:00+13w71178100 0.1 10111035
21:00+11wsw512880 0.1 1011304